Date,TemperatureHighF,TemperatureAvgF,TemperatureLowF,DewpointHighF,DewpointAvgF,DewpointLowF,HumidityHigh,HumidityAvg,HumidityLow,PressureMaxIn,PressureMinIn,WindSpeedMaxMPH,WindSpeedAvgMPH,GustSpeedMaxMPH,PrecipitationSumIn
2013-1-1,41,27,15,16,10,5,68,49,29,30.21,30.00,6,2,6,0.00
2013-1-2,50,31,16,17,11,4,58,44,27,30.18,30.03,6,2,6,0.00
2013-1-3,47,31,19,16,11,6,58,45,28,30.12,30.00,6,2,6,0.04
2013-1-4,47,30,19,18,12,6,60,47,28,30.15,30.06,6,2,6,0.00
2013-1-5,47,31,19,19,14,9,65,50,29,30.15,29.91,4,1,4,0.00
2013-1-6,40,30,22,27,19,10,77,64,46,29.97,29.85,0,0,0,0.00
2013-1-7,50,35,22,23,16,12,73,48,27,30.12,29.97,0,0,0,0.00
2013-1-8,62,44,32,30,24,18,69,48,26,30.12,30.00,0,0,0,0.00
2013-1-9,54,43,29,30,25,20,77,51,36,30.09,29.65,0,0,0,0.00
2013-1-10,46,35,23,22,8,-2,46,33,18,29.82,29.56,18,5,18,0.00
2013-1-11,38,28,20,7,2,-2,50,34,21,29.91,29.76,16,5,17,0.00
2013-1-12,38,25,14,7,1,-8,49,35,19,29.94,29.85,13,4,13,0.00
2013-1-13,37,21,8,5,-3,-9,45,35,19,30.06,29.82,25,4,25,0.00
2013-1-14,43,27,9,6,-1,-10,43,30,20,30.18,30.00,17,5,17,0.00
2013-1-15,58,43,29,22,15,4,47,33,24,30.32,30.12,15,6,15,0.00
2013-1-16,62,46,28,21,12,4,55,27,15,30.32,30.15,13,4,13,0.00
2013-1-17,58,37,23,15,7,-1,43,30,14,30.26,30.15,6,2,6,0.00
2013-1-18,58,36,21,14,6,1,43,30,15,30.18,30.06,5,2,5,0.00
2013-1-19,58,37,20,13,5,0,42,28,14,30.24,30.09,6,2,6,0.00
2013-1-20,59,37,21,14,5,-1,38,27,15,30.21,30.09,6,2,6,0.00
2013-1-21,61,39,23,16,7,0,41,27,14,30.18,30.06,6,2,6,0.00
2013-1-22,59,39,23,18,9,3,43,30,17,30.12,30.00,6,2,6,0.00
2013-1-23,58,43,27,31,14,4,48,32,19,30.06,29.94,13,2,13,0.00
2013-1-24,57,49,44,39,36,31,72,60,43,30.12,29.97,15,3,15,0.00
2013-1-25,60,49,44,43,36,27,81,63,37,30.09,29.91,8,2,8,0.00
2013-1-26,59,46,34,35,31,27,77,58,35,29.91,29.70,14,2,14,0.00
2013-1-27,49,37,27,33,16,3,86,49,17,29.85,29.67,13,5,13,0.00
2013-1-28,46,33,20,13,8,3,48,36,25,30.00,29.85,15,5,15,0.00
2013-1-29,62,48,33,27,21,9,49,35,25,30.21,29.91,18,5,18,0.00
2013-1-30,65,47,32,27,20,14,60,37,16,30.21,30.06,12,4,12,0.00
2013-1-31,63,44,31,25,16,7,51,35,19,30.18,30.06,7,2,7,0.00
2013-2-1,61,41,25,23,14,9,50,35,19,30.18,30.06,8,2,8,0.00
2013-2-2,61,46,32,24,17,12,43,33,22,30.21,30.09,5,1,5,0.00
2013-2-3,63,48,32,25,19,11,49,32,21,30.12,29.94,8,2,8,0.00
2013-2-4,64,45,29,24,14,6,49,31,16,30.06,29.91,6,2,6,0.00
2013-2-5,63,44,30,24,14,7,43,30,18,29.97,29.76,10,2,10,0.00
2013-2-6,60,43,30,14,6,-7,31,22,14,29.97,29.82,14,3,14,0.00
2013-2-7,60,40,21,18,4,-6,35,23,14,29.94,29.62,17,5,18,0.00
2013-2-8,46,36,30,22,14,-6,65,40,20,29.73,29.62,18,7,18,0.00
2013-2-9,48,37,29,15,10,4,44,33,19,29.91,29.70,17,7,17,0.00
2013-2-10,49,36,22,16,10,0,44,34,26,29.94,29.82,17,5,17,0.00
2013-2-11,49,36,24,13,5,1,42,29,19,30.06,29.91,14,5,14,0.00
2013-2-12,59,40,22,18,9,0,43,29,17,30.15,29.97,13,4,13,0.00
2013-2-13,62,46,27,24,16,4,42,31,24,30.15,30.03,15,4,15,0.00
2013-2-14,62,46,30,26,19,13,52,35,19,30.21,30.03,13,4,13,0.00
2013-2-15,64,44,27,24,14,5,52,32,16,30.26,30.15,9,3,9,0.00
2013-2-16,64,43,26,20,9,-1,41,26,16,30.21,29.91,14,2,14,0.00
2013-2-17,64,42,24,16,6,-1,34,23,13,29.91,29.79,9,2,9,0.00
2013-2-18,62,42,24,19,9,0,38,27,16,29.88,29.65,22,5,22,0.00
2013-2-19,58,40,28,19,8,0,43,28,17,29.65,29.38,19,4,19,0.00
2013-2-20,52,39,28,18,10,2,50,31,19,29.79,29.44,18,6,18,0.00
2013-2-21,49,35,21,14,5,-1,42,29,17,29.94,29.73,13,4,13,0.00
2013-2-22,60,41,24,19,8,-1,36,26,17,30.03,29.91,14,3,14,0.00
2013-2-23,51,37,25,20,9,1,40,31,24,30.03,29.76,29,8,29,0.00
2013-2-24,53,36,22,12,4,-5,42,27,16,30.12,30.00,17,5,17,0.00
2013-2-25,57,38,19,13,4,-6,35,24,15,30.06,29.88,8,3,8,0.00
2013-2-26,57,42,27,11,6,-1,33,23,15,30.09,29.91,20,8,20,0.00
2013-2-27,60,42,21,15,5,-4,35,23,15,30.18,30.06,15,3,15,0.00
2013-2-28,64,43,25,16,6,-7,36,23,16,30.30,30.18,8,2,8,0.00
2013-3-1,68,49,31,27,17,10,46,30,17,30.30,30.18,10,3,10,0.00
2013-3-2,70,51,34,27,18,11,44,29,15,30.24,29.94,17,3,17,0.00
2013-3-3,71,55,43,32,24,14,52,31,17,29.94,29.76,20,5,20,0.00
2013-3-4,66,52,35,27,21,11,56,32,15,29.97,29.88,14,4,14,0.00
2013-3-5,68,54,34,27,18,9,40,25,15,29.91,29.70,31,10,31,0.00
2013-3-6,66,52,35,22,14,4,35,22,14,29.76,29.65,25,6,25,0.00
2013-3-7,56,44,32,26,18,7,56,36,26,29.73,29.65,17,7,17,0.00
2013-3-8,56,44,37,29,23,16,65,44,26,29.76,29.59,20,5,20,0.00
2013-3-9,58,46,32,20,15,5,55,32,17,30.12,29.76,18,7,18,0.00
2013-3-10,66,54,28,17,11,-3,28,18,14,30.24,30.09,10,3,10,0.00
2013-3-11,71,58,31,20,14,3,31,19,14,30.15,29.97,13,4,13,0.00
2013-3-12,73,60,34,24,16,4,32,19,13,30.15,30.00,10,4,10,0.00
2013-3-13,78,60,36,23,16,5,31,18,13,30.15,30.06,13,4,13,0.00
2013-3-14,76,58,38,26,17,7,37,22,13,30.12,30.03,8,2,8,0.00
2013-3-15,82,62,42,25,19,12,30,20,12,30.03,29.88,13,3,13,0.00
2013-3-16,78,61,41,25,18,9,32,20,13,29.94,29.82,14,4,14,0.00
2013-3-17,74,56,36,21,14,8,32,20,12,29.91,29.82,12,4,12,0.00
2013-3-18,71,55,34,26,15,5,32,21,14,29.94,29.82,15,4,15,0.00
2013-3-19,72,60,46,30,24,19,38,26,16,29.97,29.88,14,4,14,0.00
2013-3-20,75,59,46,32,23,10,37,25,14,29.88,29.82,17,4,17,0.00
2013-3-21,71,55,38,20,15,10,31,21,14,29.85,29.67,23,5,23,0.00
2013-3-22,69,55,39,20,12,3,28,18,12,29.91,29.73,26,7,26,0.00
2013-3-23,68,50,29,19,6,-7,20,17,13,29.94,29.79,20,5,20,0.00
2013-3-24,72,52,32,20,9,-4,25,18,14,29.97,29.82,13,4,13,0.00
2013-3-25,75,54,35,21,11,1,30,18,12,29.91,29.76,10,2,10,0.00
2013-3-26,74,55,34,22,12,-2,33,19,13,29.82,29.70,11,3,11,0.00
2013-3-27,73,55,38,30,22,18,47,30,14,29.85,29.73,12,3,12,0.00
2013-3-28,74,57,40,29,24,20,47,30,16,30.00,29.85,11,3,11,0.00
2013-3-29,76,59,40,32,24,19,48,28,15,30.06,29.94,13,3,13,0.00
2013-3-30,76,60,43,32,24,18,43,26,15,30.00,29.88,17,5,17,0.00
2013-3-31,68,59,50,41,24,11,52,27,15,29.88,29.79,25,7,25,0.00
2013-4-1,69,55,37,25,20,15,43,27,15,29.97,29.79,17,5,17,0.00
2013-4-2,74,56,37,29,23,16,49,30,14,30.00,29.91,8,3,8,0.00
2013-4-3,78,60,40,32,23,17,43,26,13,30.03,29.91,13,4,13,0.00
2013-4-4,80,61,47,34,24,16,40,26,13,29.97,29.79,20,5,20,0.00
2013-4-5,75,58,40,24,19,13,37,23,13,29.91,29.82,10,3,11,0.00
2013-4-6,78,62,43,27,20,13,32,21,13,29.94,29.82,14,4,14,0.00
2013-4-7,82,63,46,27,18,8,29,19,11,29.94,29.56,13,4,13,0.00
2013-4-8,57,48,41,22,14,7,32,26,17,29.82,29.47,23,8,23,0.00
2013-4-9,67,50,37,18,12,6,33,23,14,30.06,29.82,17,6,17,0.00
2013-4-10,81,61,40,24,16,6,28,18,12,30.12,29.88,13,5,13,0.00
2013-4-11,81,62,49,32,24,13,34,24,13,29.94,29.73,17,6,17,0.00
2013-4-12,81,61,40,28,23,18,44,25,12,29.85,29.73,10,3,10,0.00
2013-4-13,88,66,43,31,26,20,46,25,11,29.79,29.62,11,4,11,0.00
2013-4-14,86,66,47,31,22,13,38,20,11,29.70,29.56,14,5,14,0.00
2013-4-15,74,57,39,22,14,4,36,19,13,29.62,29.47,18,5,19,0.00
2013-4-16,52,42,34,24,16,7,61,34,24,29.97,29.62,22,7,22,0.00
2013-4-17,61,44,29,18,11,4,44,28,14,30.12,29.94,20,8,20,0.00
2013-4-18,76,52,30,22,11,2,31,20,13,30.18,30.00,13,4,13,0.00
2013-4-19,84,55,36,24,16,6,34,23,11,30.15,29.94,7,2,7,0.00
2013-4-20,84,84,84,24,24,24,11,11,11,29.94,29.94,2,2,2,0.00
2013-4-22,84,84,84,24,24,24,11,11,11,29.94,29.94,2,2,2,0.00
2013-4-23,84,84,84,24,24,24,11,11,11,29.94,29.94,2,2,2,0.00
2013-4-25,84,84,84,24,24,24,11,11,11,29.94,29.94,1,1,2,0.00
2013-4-26,84,84,84,24,24,24,11,11,11,29.94,29.94,1,1,2,0.00
2013-4-27,84,84,84,24,24,24,11,11,11,29.94,29.94,2,2,2,0.00
2013-4-28,84,84,84,24,24,24,11,11,11,29.94,29.94,1,1,2,0.00
2013-4-29,84,84,84,24,24,24,11,11,11,29.94,29.94,2,1,2,0.00
2013-4-30,84,84,84,24,24,24,11,11,11,29.94,29.94,2,2,2,0.00
2013-5-1,84,84,84,24,24,24,11,11,11,29.94,29.94,2,1,2,0.00
2013-5-2,84,84,84,24,24,24,11,11,11,29.94,29.94,2,2,2,0.00
2013-5-3,84,84,84,24,24,24,11,11,11,29.94,29.94,2,2,2,0.00
2013-5-4,84,74,53,34,24,20,29,17,11,29.94,29.82,8,2,8,0.00
2013-5-5,74,59,44,32,25,18,44,29,13,29.91,29.79,20,5,20,0.04
2013-5-6,71,57,48,42,32,27,75,40,22,30.00,29.88,20,6,20,0.00
2013-5-7,75,57,46,45,39,31,82,55,23,30.06,29.94,12,3,12,0.08
2013-5-8,77,60,50,43,37,31,65,45,21,30.15,30.03,18,4,18,0.04
2013-5-9,77,61,49,42,38,33,68,46,23,30.24,30.09,23,4,23,0.00
2013-5-10,91,67,47,42,36,27,72,39,12,30.30,30.21,31,4,31,0.00
2013-5-11,95,73,53,39,32,24,45,25,9,30.32,30.21,11,3,11,0.00
2013-5-12,98,76,56,40,32,24,44,23,9,30.32,30.15,13,3,13,0.00
2013-5-13,99,77,57,40,31,23,45,22,8,30.24,30.09,15,4,15,0.00
2013-5-14,96,73,57,36,30,24,36,23,9,30.15,29.91,30,7,30,0.00
2013-5-15,95,76,54,37,29,20,42,20,9,30.09,29.97,15,5,15,0.00
2013-5-16,79,69,61,34,27,16,36,21,14,30.00,29.88,17,5,17,0.00
2013-5-17,84,68,53,34,28,18,38,24,13,30.03,29.91,18,5,18,0.00
2013-5-18,88,68,52,30,23,18,34,20,10,30.12,30.00,12,4,12,0.00
2013-5-19,88,69,55,34,26,16,36,21,10,30.21,30.06,18,6,18,0.04
2013-5-20,90,71,55,28,22,14,25,16,10,30.24,30.09,15,6,15,0.00
2013-5-21,92,71,51,32,22,14,35,17,9,30.09,29.88,20,4,20,0.00
2013-5-22,87,68,48,28,20,10,27,17,11,29.88,29.73,21,6,21,0.00
2013-5-23,86,66,50,26,15,6,18,14,11,30.03,29.82,20,6,20,0.00
2013-5-24,85,67,44,24,17,5,26,15,11,30.03,29.91,23,6,23,0.39
2013-5-25,88,68,48,27,22,16,28,18,10,30.00,29.91,26,5,26,0.04
2013-5-26,93,70,50,30,24,18,36,19,9,30.06,29.97,20,5,20,0.00
2013-5-27,90,70,55,32,25,18,26,19,10,30.06,29.94,15,5,15,0.00
2013-5-28,88,72,56,38,28,19,41,22,10,29.97,29.88,20,6,20,0.00
2013-5-29,92,73,56,37,27,18,36,20,9,29.97,29.85,20,5,20,0.00
2013-5-30,97,76,57,33,25,16,27,16,9,30.03,29.91,20,5,20,0.00
2013-5-31,97,78,64,30,23,16,22,13,8,30.18,30.03,15,5,15,0.00
2013-6-1,99,79,55,28,22,11,20,13,8,30.18,30.00,20,5,20,0.00
2013-6-2,101,80,59,36,27,17,30,16,7,30.03,29.82,18,4,18,0.00
2013-6-3,101,80,63,37,31,24,28,18,8,30.03,29.91,24,5,24,0.00
2013-6-4,103,80,62,39,31,24,35,19,7,30.09,29.97,18,4,18,0.00
2013-6-5,104,82,60,38,30,23,34,18,7,30.15,30.00,15,3,15,0.00
2013-6-6,104,83,62,38,29,23,32,16,7,30.15,30.00,17,3,17,0.00
2013-6-7,108,86,67,42,30,21,33,15,7,30.12,30.00,13,4,13,0.00
2013-6-8,110,88,67,39,29,18,23,13,7,30.12,29.97,12,3,12,0.00
2013-6-9,104,86,67,41,30,22,32,15,7,30.06,29.97,24,7,24,0.00
2013-6-10,90,78,61,34,24,11,24,14,10,30.03,29.91,25,6,25,0.00
2013-6-11,97,78,59,41,32,19,44,22,9,30.09,30.00,20,5,20,0.00
2013-6-12,99,79,58,35,25,16,28,15,8,30.09,29.97,18,4,19,0.00
2013-6-13,100,82,64,34,24,16,30,13,8,30.12,30.00,10,5,10,0.00
2013-6-14,96,76,61,28,22,15,24,14,9,30.15,29.94,15,5,15,0.00
2013-6-15,95,77,56,30,23,14,26,14,9,30.03,29.94,14,4,14,0.00
2013-6-16,100,78,57,32,25,19,26,15,8,30.12,30.03,13,4,13,0.00
2013-6-17,100,80,59,37,27,18,34,16,8,30.15,29.97,15,4,15,0.00
2013-6-18,83,75,58,29,23,20,26,15,11,30.03,29.97,7,2,7,0.00
2013-6-19,83,82,69,23,23,18,15,11,11,29.97,29.97,13,2,13,0.00
2013-6-20,93,75,59,30,22,12,26,14,9,30.06,29.91,15,6,15,0.00
2013-6-21,96,76,61,32,24,16,27,15,9,30.06,29.94,14,6,14,0.00
2013-6-22,98,79,61,35,23,16,21,13,8,30.09,29.94,10,3,10,0.00
2013-6-23,93,76,59,38,27,19,36,17,9,30.00,29.79,15,4,15,0.00
2013-6-24,92,74,58,41,33,22,43,24,14,30.00,29.85,15,5,15,0.00
2013-6-25,98,78,58,43,38,30,48,26,11,30.12,30.00,18,4,18,0.00
2013-6-26,102,84,64,44,38,30,44,22,10,30.18,30.09,18,5,19,0.00
2013-6-27,105,87,66,46,38,29,42,20,9,30.26,30.15,18,5,18,0.00
2013-6-28,109,87,68,44,35,25,35,18,7,30.24,30.12,17,2,17,0.00
2013-6-29,109,87,68,46,37,25,36,19,7,30.18,30.06,23,2,23,0.00
2013-6-30,110,89,68,44,35,25,38,17,7,30.12,30.00,11,2,11,0.00
2013-7-1,109,89,71,46,36,31,32,17,8,30.24,30.06,15,3,15,0.00
2013-7-2,108,89,72,48,40,33,40,20,8,30.24,30.12,19,5,19,0.00
2013-7-3,107,87,78,47,38,31,30,19,9,30.21,30.06,25,5,25,0.00
2013-7-4,102,82,66,49,40,30,46,25,11,30.09,30.00,26,4,26,0.00
2013-7-5,104,84,65,50,39,24,51,24,9,30.03,29.88,16,4,16,0.00
2013-7-6,105,84,64,41,32,24,36,17,7,30.00,29.91,24,4,25,0.00
2013-7-7,104,84,63,38,29,20,33,15,7,30.06,29.94,3,2,4,0.00
2013-7-8,106,82,60,36,28,20,29,15,7,30.18,30.06,14,2,14,0.00
2013-7-9,106,81,32,37,28,0,29,16,6,30.24,30.15,14,4,14,0.00
2013-7-10,96,79,62,38,28,15,23,16,9,30.21,30.09,15,2,15,0.00
2013-7-11,90,80,70,59,47,37,67,32,20,30.15,30.06,20,5,20,0.00
2013-7-12,91,77,67,46,33,22,45,24,10,30.09,30.00,15,5,15,0.00
2013-7-13,103,81,61,38,30,22,34,18,7,30.15,30.03,12,8,12,0.00
2013-7-14,104,83,62,37,30,24,28,15,8,30.18,30.03,15,4,15,0.00
2013-7-15,102,86,67,42,33,23,30,17,10,30.09,29.94,29,6,29,0.00
2013-7-16,98,85,69,33,26,22,24,13,8,30.12,30.00,18,8,18,0.00
2013-7-17,102,83,60,35,26,19,26,14,7,30.24,30.12,12,5,12,0.00
2013-7-18,106,84,60,32,25,16,24,13,6,30.21,30.06,12,8,12,0.00
2013-7-19,107,86,63,36,28,16,24,13,7,30.15,30.03,13,5,13,0.00
2013-7-20,109,88,69,45,35,25,35,16,7,30.09,29.97,31,4,31,0.00
2013-7-21,106,86,72,58,43,34,58,25,9,30.21,30.00,25,5,25,0.00
2013-7-22,92,78,68,58,54,46,66,45,22,30.26,30.12,14,4,14,0.00
2013-7-23,91,76,65,61,55,43,82,53,20,30.32,30.15,5,3,5,0.04
2013-7-24,102,82,65,57,50,39,71,39,13,30.21,30.09,3,2,4,0.00
2013-7-25,104,87,72,58,46,33,59,28,9,30.21,30.12,14,3,14,0.00
2013-7-26,92,85,70,72,45,40,53,27,17,30.26,30.15,10,4,11,0.00
2013-7-27,88,75,67,66,59,49,85,61,34,30.30,30.12,7,3,9,0.16
2013-7-28,92,76,63,61,51,40,76,45,18,30.12,30.03,2,2,2,0.00
2013-7-29,99,78,61,52,42,27,64,33,11,30.15,30.06,20,4,20,0.00
2013-7-30,98,80,60,44,36,27,47,24,11,30.24,30.15,16,4,16,0.00
2013-7-31,99,83,64,44,32,22,46,19,8,30.24,30.06,22,7,22,0.00
2013-8-1,101,80,59,37,27,20,37,17,7,30.12,29.97,12,2,12,0.00
2013-8-2,97,79,59,33,26,18,32,16,9,30.12,30.00,18,6,19,0.00
2013-8-3,95,78,59,36,27,19,35,18,9,30.12,30.03,13,5,13,0.00
2013-8-4,99,78,57,35,26,19,35,17,8,30.18,30.06,16,4,16,0.00
2013-8-5,99,80,59,36,27,20,35,16,8,30.18,30.03,17,4,17,0.00
2013-8-6,100,80,60,37,28,22,34,17,8,30.15,30.03,15,4,15,0.00
2013-8-7,98,79,62,43,29,23,45,18,8,30.12,30.00,14,3,14,0.00
2013-8-8,92,76,58,38,28,20,39,20,9,30.09,29.97,20,5,20,0.00
2013-8-9,92,75,55,34,24,16,31,16,9,30.09,30.00,6,6,6,0.00
2013-8-10,94,76,57,37,27,18,35,18,9,30.12,30.03,6,6,6,0.00
2013-8-11,96,77,58,39,30,19,41,21,9,30.15,30.03,6,6,6,0.00
2013-8-12,98,77,58,39,28,20,38,18,8,30.15,30.06,6,6,6,0.00
2013-8-13,100,79,58,33,26,19,26,16,8,30.18,30.09,6,6,6,0.00
2013-8-14,102,80,58,35,26,18,32,16,7,30.18,30.06,6,6,6,0.00
2013-8-15,95,78,66,32,25,18,23,15,9,30.15,30.09,6,2,6,0.00
2013-8-16,102,83,64,42,34,30,36,19,10,30.21,30.09,0,0,0,0.00
2013-8-17,99,79,65,50,40,31,37,27,11,30.21,30.03,0,0,0,0.00
2013-8-18,100,77,61,56,42,30,68,35,10,30.30,30.09,37,1,37,0.04
2013-8-19,93,74,60,57,47,37,80,44,17,30.26,30.12,16,4,16,0.00
2013-8-20,96,77,62,48,42,33,52,32,14,30.18,30.09,20,5,20,0.00
2013-8-21,93,77,67,49,42,34,50,30,15,30.18,30.09,20,3,20,0.00
2013-8-22,99,78,59,48,34,18,64,25,8,30.15,30.00,18,5,18,0.00
2013-8-23,100,77,57,37,26,17,39,17,8,30.09,29.91,14,5,14,0.00
2013-8-24,97,77,56,38,28,20,35,18,8,30.06,29.94,24,6,24,0.00
2013-8-25,95,78,61,46,31,19,52,21,9,30.12,30.00,21,6,21,0.00
2013-8-26,94,77,65,54,46,35,65,36,14,30.21,30.06,21,7,21,0.00
2013-8-27,90,75,65,54,50,46,63,43,26,30.15,30.03,20,5,20,0.00
2013-8-28,96,79,62,53,45,35,66,36,15,30.12,30.06,24,6,24,0.00
2013-8-29,102,80,62,45,39,31,48,26,9,30.21,30.12,13,4,13,0.00
2013-8-30,102,82,65,54,47,39,52,31,15,30.26,30.12,14,5,14,0.00
2013-8-31,80,71,70,56,55,53,60,58,40,30.21,30.15,3,0,4,0.00
2013-9-1,70,70,70,56,56,56,60,60,60,30.18,30.18,0,0,0,0.00
2013-9-2,70,70,70,56,56,56,60,60,60,30.18,30.18,0,0,0,0.00
2013-9-3,80,70,66,56,54,46,60,56,38,30.18,30.12,4,0,4,0.00
2013-9-4,96,77,59,52,44,34,70,36,14,30.21,30.09,22,6,22,0.00
2013-9-5,100,80,63,48,38,28,54,25,10,30.15,30.06,20,5,20,0.00
2013-9-6,102,78,59,41,32,22,43,21,8,30.18,30.03,21,4,21,0.00
2013-9-7,100,77,59,42,32,24,37,21,9,30.15,30.03,15,3,15,0.00
2013-9-8,99,78,60,47,35,29,38,23,10,30.15,30.00,26,3,26,0.00
2013-9-9,99,78,61,50,37,23,62,28,8,30.12,29.94,13,3,13,0.00
2013-9-10,98,78,60,38,31,26,35,19,11,30.09,30.00,13,4,13,0.00
2013-9-11,94,73,58,43,35,28,54,27,11,30.15,30.06,14,3,14,0.00
2013-9-12,94,76,60,43,38,30,52,27,14,30.12,30.03,15,3,15,0.00
2013-9-13,95,78,64,48,41,35,53,29,14,30.12,29.97,13,4,13,0.00
2013-9-14,96,77,62,46,40,34,47,29,14,30.06,29.94,14,2,14,0.00
2013-9-15,99,78,60,46,36,24,55,26,10,30.03,29.94,20,4,20,0.00
2013-9-16,96,76,56,39,31,23,47,22,10,30.06,29.94,23,7,23,0.00
2013-9-17,97,75,58,32,25,18,29,16,8,29.97,29.79,24,6,24,0.00
2013-9-18,89,69,58,32,23,14,35,18,10,30.09,29.94,18,5,18,0.00
2013-9-19,94,69,49,32,23,15,38,20,9,30.09,30.00,13,3,13,0.00
2013-9-20,93,70,49,31,22,14,39,17,9,30.03,29.88,24,5,24,0.00
2013-9-21,87,67,50,33,22,14,35,20,11,29.91,29.76,23,6,23,0.00
2013-9-22,82,63,50,32,25,20,39,25,13,30.06,29.85,17,6,17,0.00
2013-9-23,90,67,47,37,26,20,39,24,10,30.15,30.06,2,2,2,0.00
2013-9-24,91,69,48,36,26,20,40,22,10,30.12,29.85,7,1,7,0.00
2013-9-25,86,70,53,25,20,13,27,15,11,29.88,29.73,7,7,7,0.00
2013-9-26,69,55,46,26,20,14,38,26,15,30.09,29.82,7,7,7,0.00
2013-9-27,76,57,40,28,21,16,41,26,13,30.21,30.09,7,7,7,0.00
2013-9-28,83,59,39,29,19,12,39,23,11,30.24,30.15,7,7,7,0.00
2013-9-29,76,58,43,28,21,15,35,24,15,30.21,30.09,7,5,7,0.00
2013-9-30,92,65,45,30,22,16,37,22,9,30.12,30.03,8,2,8,0.00
2013-10-1,88,66,47,36,27,19,38,25,11,30.06,29.97,17,4,17,0.00
2013-10-2,88,66,50,37,26,14,40,24,11,30.00,29.94,12,2,12,0.00
2013-10-3,72,58,45,20,15,10,27,19,14,30.18,29.91,25,7,25,0.00
2013-10-4,73,56,46,21,13,7,27,19,14,30.38,30.18,17,6,17,0.00
2013-10-5,81,56,37,24,12,4,24,18,12,30.44,30.32,12,3,12,0.00
2013-10-6,85,58,35,24,12,1,26,17,11,30.35,30.21,15,3,15,0.00
2013-10-7,79,58,44,24,13,4,26,17,12,30.21,30.00,13,2,13,0.00
2013-10-8,84,59,39,24,15,4,26,18,11,30.00,29.73,14,3,14,0.00
2013-10-9,59,51,45,40,28,11,80,49,17,29.85,29.62,14,2,14,0.48
2013-10-10,74,53,40,41,35,30,82,56,23,30.06,29.82,12,2,12,0.00
2013-10-11,76,55,39,38,32,27,73,47,21,30.15,30.03,13,3,13,0.00
2013-10-12,74,56,40,36,29,22,65,39,16,30.09,29.94,16,4,16,0.00
2013-10-13,72,55,41,30,24,19,44,31,19,30.18,29.88,20,6,20,0.00
2013-10-14,73,54,40,30,24,17,52,33,14,30.24,30.15,17,3,17,0.00
2013-10-15,73,58,44,28,21,14,43,25,14,30.24,30.12,17,6,17,0.00
2013-10-16,75,52,35,28,18,14,42,28,13,30.26,30.15,13,3,13,0.00
2013-10-17,82,55,36,28,19,14,41,27,12,30.21,30.06,6,2,6,0.00
2013-10-18,84,57,40,27,19,13,37,24,11,30.21,30.15,10,2,10,0.00
2013-10-19,83,56,38,26,17,11,34,23,11,30.26,30.15,12,3,12,0.00
2013-10-20,84,58,39,27,17,11,32,22,11,30.21,30.06,9,3,9,0.00
2013-10-21,85,60,42,28,18,11,30,21,11,30.21,30.09,11,3,11,0.00
2013-10-22,83,58,41,26,18,11,31,22,11,30.21,30.12,10,2,10,0.00
2013-10-23,83,58,43,25,19,14,32,23,11,30.15,30.03,15,3,15,0.00
2013-10-24,83,58,41,27,18,13,31,23,11,30.18,30.06,10,3,10,0.00
2013-10-25,84,59,42,27,18,11,31,21,11,30.26,30.18,10,3,10,0.00
2013-10-26,82,58,43,27,17,12,29,21,12,30.32,30.18,17,4,17,0.00
2013-10-27,78,58,42,27,17,12,30,22,13,30.18,29.59,25,4,25,0.00
2013-10-28,62,50,36,26,18,7,50,30,15,29.88,29.53,21,5,21,0.00
2013-10-29,62,44,28,31,22,14,59,44,24,30.09,29.85,15,4,15,0.00
2013-10-30,68,47,35,27,20,11,52,36,17,30.21,30.06,14,3,14,0.00
2013-10-31,74,48,31,27,16,11,45,30,13,30.24,30.15,9,2,9,0.00
2013-11-1,75,51,35,32,19,13,43,30,15,30.32,30.18,10,2,10,0.00
2013-11-2,74,50,33,30,18,13,45,30,14,30.21,29.94,13,3,13,0.00
2013-11-3,75,51,33,29,18,12,42,28,14,29.97,29.85,22,4,22,0.00
2013-11-4,60,49,42,22,14,10,31,25,19,30.18,29.88,22,9,22,0.00
2013-11-5,67,48,35,18,10,1,30,22,15,30.32,30.15,23,5,23,0.00
2013-11-6,72,48,32,20,10,3,30,23,14,30.38,30.26,8,2,9,0.00
2013-11-7,69,48,39,24,15,8,33,27,17,30.32,30.15,6,2,6,0.00
2013-11-8,72,48,33,28,16,11,41,29,14,30.18,30.03,12,3,12,0.00
2013-11-9,72,49,32,29,15,10,42,28,14,30.21,30.09,14,3,14,0.00
2013-11-10,73,49,33,26,13,6,39,25,14,30.30,30.18,13,3,13,0.00
2013-11-11,74,51,34,23,13,7,34,23,13,30.32,30.24,8,2,9,0.00
2013-11-12,51,47,43,15,13,9,28,26,19,30.35,30.30,4,1,4,0.00
2013-11-13,59,48,37,22,16,3,38,28,22,30.35,30.21,7,3,7,0.00
2013-11-14,52,43,37,20,17,7,42,34,27,30.24,29.85,6,2,6,0.00
2013-11-15,64,42,34,23,17,2,43,37,21,29.85,29.76,7,3,7,0.00
2013-11-16,67,46,32,27,19,13,49,36,20,29.94,29.76,12,3,12,0.00
2013-11-17,67,41,30,30,20,3,53,43,24,30.21,29.94,10,2,10,0.00
2013-11-18,59,39,32,30,22,18,59,52,32,30.21,30.03,10,3,10,0.00
2013-11-19,69,49,34,34,26,21,64,43,23,30.09,29.94,10,4,10,0.00
2013-11-20,71,54,40,36,29,24,55,40,23,29.97,29.82,13,3,13,0.00
2013-11-21,51,45,38,32,25,17,55,45,39,30.21,29.85,20,7,20,0.00
2013-11-22,38,35,31,28,23,14,85,62,38,30.24,30.12,22,6,22,0.00
2013-11-23,46,40,35,28,25,22,70,55,41,30.21,30.09,12,3,12,0.12
2013-11-24,59,43,34,26,23,20,60,46,25,30.30,30.15,7,3,7,0.00
2013-11-25,66,44,30,28,22,17,62,43,20,30.38,30.24,5,2,5,0.00
2013-11-26,64,45,30,30,22,18,64,43,24,30.35,30.21,9,2,9,0.00
2013-11-27,63,47,36,33,24,21,56,42,24,30.24,30.03,15,3,15,0.00
2013-11-28,59,44,34,31,24,19,64,46,26,30.21,30.06,10,3,10,0.00
2013-11-29,62,42,28,29,22,16,63,47,25,30.32,30.18,7,3,7,0.00
2013-11-30,63,42,29,26,19,15,58,42,23,30.35,30.21,7,2,7,0.00
2013-12-1,64,43,29,25,16,11,50,36,18,30.41,30.30,6,3,6,0.00
2013-12-2,66,44,28,26,16,10,47,34,18,30.32,29.85,14,3,14,0.00
2013-12-3,68,46,29,30,20,7,69,36,23,29.85,29.53,24,7,24,0.00
2013-12-4,42,30,22,11,4,-1,40,34,26,30.00,29.85,17,3,17,0.00
2013-12-5,26,18,14,1,-2,-3,46,42,33,30.03,30.00,5,2,5,0.00
2013-12-6,27,26,25,5,3,0,42,38,33,30.03,29.94,2,0,2,0.00
2013-12-7,44,33,24,21,14,4,65,47,36,29.94,29.73,6,3,6,0.00
2013-12-8,43,30,21,19,4,-2,41,33,29,30.24,29.73,7,3,7,0.00
2013-12-9,22,22,21,-1,-2,-2,37,35,34,30.30,30.24,5,2,5,0.00
2013-12-10,33,22,14,6,0,-11,42,37,30,30.44,30.18,2,0,0,0.00
2013-12-11,37,29,21,8,6,-6,43,37,30,30.35,30.24,0,0,0,0.00
2013-12-12,31,25,20,7,5,2,46,42,34,30.35,30.21,0,0,0,0.00
2013-12-13,48,32,23,16,8,-6,44,37,27,30.41,30.15,0,0,0,0.00
2013-12-14,60,40,26,21,10,1,49,31,17,30.50,30.41,0,0,0,0.00
2013-12-15,63,45,35,16,10,-6,31,25,16,30.47,30.35,6,1,6,0.00
2013-12-16,67,45,34,21,11,7,33,27,15,30.41,30.30,5,2,5,0.00
2013-12-17,42,34,30,12,8,6,37,34,29,30.38,30.26,2,2,2,0.00
2013-12-18,48,42,39,13,11,10,30,28,24,30.26,29.76,1,0,0,0.00
2013-12-19,40,37,34,16,14,10,40,38,30,30.00,29.76,0,0,0,0.00
2013-12-21,62,53,34,25,21,3,40,28,22,30.18,29.97,0,0,0,0.00
2013-12-22,63,53,36,25,20,5,45,28,23,30.38,30.18,0,0,0,0.00
2013-12-24,66,60,37,27,19,3,45,20,17,30.38,30.30,8,3,8,0.00
2013-12-25,62,45,32,16,5,-3,25,19,15,30.44,30.35,8,3,8,0.00
2013-12-26,65,40,24,17,3,-6,31,21,14,30.41,30.30,10,3,10,0.00
2013-12-27,62,41,28,15,1,-8,22,19,14,30.32,30.15,6,2,6,0.00
2013-12-28,63,45,27,12,5,-5,26,20,13,30.21,30.06,20,7,20,0.00
2013-12-29,60,43,30,12,4,-6,28,20,14,30.30,30.18,20,5,20,0.00
2013-12-30,60,38,24,15,1,-8,24,20,14,30.32,30.21,6,2,6,0.00
2013-12-31,55,38,28,12,2,-5,28,23,16,30.26,30.15,6,2,6,0.00
2014-1-1,66,43,28,27,9,-3,33,26,15,30.32,30.26,10,3,10,0.00
2014-1-2,63,42,27,25,14,8,44,33,19,30.30,30.18,7,2,7,0.00